Temp
74 74 74 74 74 75 74 74 75 76 74 76 76 76 76 77 77 77 78 79 78 79 79 78 79 79 80 79 79 79 79 78 80 78 78 79 79 80 80 80 79 78
74 74 75 75 74 75 75 75 75 75 75 75 76 76 76 77 78 78 78 78 79 79 78 78 78 78 79 79 78 78 78 78 79 81 78 78 79 78 80 79 79 77
75 75 75 75 76 76 77 76 76 76 77 77 78 77 78 78 78 77 77 78 79 80 78 78 78 78 79 78 78 79 79 78 78 80 78 78 77 77 79 80 79 79
75 76 76 77 77 77 77 76 76 75 77 77 77 79 79 81 79 79 77 79 78 78 79 79 79 80 79 79 78 78 79 78 79 78 78 77 76 78 77 77 78 78
76 76 77 77 77 78 77 77 77 77 77 77 79 78 78 77 78 79 78 78 77 79 78 78 78 79 78 78 78 78 79 78 77 77 76 76 76 77 77 78 77 77
76 76 76 77 77 77 78 78 78 79 78 79 78 79 79 78 79 79 79 79 80 80 80 80 79 80 79 79 78 78 79 79 77 76 76 77 77 78 78 77 77 77
77 76 77 77 78 78 78 78 79 79 80 80 79 79 79 79 79 79 79 79 80 79 80 79 78 78 79 78 78 78 78 78 76 76 76 76 76 76 77 77 76 76
77 77 77 77 78 78 78 79 79 79 80 79 79 79 79 79 79 80 80 80 80 79 79 80 78 78 79 79 78 77 78 78 77 75 76 75 75 75 76 76 76 75
78 78 78 78 78 78 79 79 80 80 80 80 80 80 80 80 80 80 79 79 79 79 79 79 78 79 79 79 78 78 78 78 77 76 76 76 75 75 75 75 75 75
77 78 78 78 78 79 79 80 81 80 80 80 81 81 81 80 81 81 80 78 79 79 79 79 79 79 79 79 78 79 78 77 77 76 76 77 76 75 75 74 75 74
76 77 77 77 78 79 80 80 81 81 80 80 81 81 81 81 80 80 79 79 80 80 80 79 79 79 78 79 79 79 79 79 77 77 76 76 76 75 75 74 74 75
75 76 77 77 77 79 79 80 81 81 81 81 81 80 80 81 81 81 81 79 80 81 81 80 80 79 79 78 79 79 79 78 78 77 77 76 76 75 76 74 75 74
75 75 76 77 77 78 79 79 80 82 82 81 81 81 81 81 80 79 80 81 79 80 81 80 80 79 78 78 78 79 79 78 77 77 76 76 76 76 76 74 74 74
76 76 76 76 76 76 77 78 80 81 81 82 81 80 81 82 82 82 81 81 81 81 80 80 79 78 78 78 78 78 78 78 77 77 76 75 75 75 75 74 74 74
76 76 76 76 76 75 75 76 77 77 78 79 79 81 82 82 83 83 81 80 81 80 80 80 79 78 79 78 78 78 78 78 77 76 75 74 74 74 74 74 74 74
74 75 76 75 75 75 75 75 76 76 77 76 77 78 79 80 80 81 82 81 80 80 79 79 78 79 79 79 79 79 78 79 77 76 75 74 73 72 73 74 74 75
73 74 74 74 74 75 75 75 75 76 76 76 76 77 77 78 80 80 80 81 81 81 78 78 79 79 77 72 72 76 79 78 76 75 74 74 72 71 71 72 74 75
72 73 73 73 73 74 75 75 75 75 75 75 76 76 76 77 77 78 79 80 79 81 80 80 80 78 71 70 71 71 77 78 77 75 72 71 71 71 71 74 74 74
72 72 72 72 73 74 74 74 74 75 75 75 75 76 77 76 75 77 78 79 80 79 80 79 79 75 70 69 69 69 72 78 76 72 72 71 71 72 73 73 73 72
71 71 71 72 72 72 73 73 73 74 74 75 76 76 76 76 76 76 77 77 78 78 77 80 79 76 69 68 67 68 69 75 75 73 73 73 72 73 73 72 71 71
71 71 71 72 72 72 72 72 72 73 73 74 74 74 74 75 75 75 76 76 77 79 78 79 81 72 67 66 65 65 67 74 75 75 74 73 71 70 69 69 69 69
70 70 71 71 72 72 71 72 72 72 72 73 73 72 73 74 74 75 75 76 76 77 78 77 79 70 66 65 63 64 67 76 75 74 72 68 68 68 68 69 69 68
70 70 70 71 71 71 71 72 72 72 72 72 72 72 71 71 73 74 75 75 75 75 75 76 77 71 64 62 62 62 68 75 74 74 70 68 69 69 69 68 68 68
70 70 70 71 71 71 71 71 71 71 72 73 71 71 71 72 72 71 72 73 74 74 75 75 75 71 61 60 59 61 71 74 73 72 69 69 68 67 67 67 66 68
70 70 70 70 70 70 70 70 70 70 69 68 68 69 71 71 72 71 71 71 71 73 74 74 74 70 58 58 58 61 70 74 72 70 68 67 66 64 63 63 65 67
70 70 70 69 69 69 69 68 68 67 67 69 69 69 69 69 70 70 69 69 70 71 72 73 72 70 63 56 58 59 65 73 71 68 65 64 64 64 63 64 65 66
MSLP
1016.09 1016.38 1016.66 1016.82 1016.97 1017.02 1017.17 1017.41 1017.49 1017.61 1017.66 1017.61 1017.78 1017.78 1017.82 1017.70 1017.70 1017.90 1017.97 1018.05 1018.14 1018.22 1018.22 1018.26 1018.22 1018.29 1018.26 1018.29 1018.34 1018.41 1018.53 1018.58 1018.49 1018.46 1018.58 1018.66 1018.73 1018.73 1018.85 1018.82 1018.90 1019.05
1015.90 1016.09 1016.29 1016.53 1016.73 1016.78 1016.90 1016.93 1017.14 1017.22 1017.29 1017.34 1017.34 1017.41 1017.46 1017.53 1017.61 1017.70 1017.85 1017.97 1017.97 1018.05 1018.02 1018.14 1018.17 1018.17 1018.22 1018.26 1018.29 1018.41 1018.49 1018.53 1018.53 1018.34 1018.58 1018.66 1018.66 1018.73 1018.82 1018.85 1018.93 1018.97
1015.61 1015.85 1016.05 1016.34 1016.53 1016.66 1016.70 1016.73 1016.82 1016.90 1016.97 1017.02 1017.02 1017.17 1017.26 1017.26 1017.46 1017.53 1017.61 1017.70 1017.90 1017.90 1017.93 1017.97 1018.05 1018.05 1018.05 1018.09 1018.14 1018.26 1018.38 1018.46 1018.53 1018.38 1018.49 1018.61 1018.66 1018.82 1018.82 1018.85 1018.93 1018.97
1015.26 1015.41 1015.66 1015.90 1016.09 1016.34 1016.41 1016.61 1016.70 1016.73 1016.78 1016.97 1017.02 1016.93 1017.02 1017.02 1017.14 1017.34 1017.46 1017.49 1017.70 1017.78 1017.73 1017.85 1017.90 1017.90 1017.90 1017.93 1018.02 1018.17 1018.17 1018.26 1018.22 1018.29 1018.49 1018.61 1018.66 1018.70 1018.85 1018.85 1018.90 1018.93
1014.97 1015.14 1015.29 1015.49 1015.66 1015.85 1016.14 1016.38 1016.49 1016.53 1016.66 1016.66 1016.66 1016.73 1016.90 1016.97 1017.09 1017.17 1017.29 1017.38 1017.46 1017.58 1017.61 1017.66 1017.70 1017.73 1017.73 1017.85 1017.90 1018.05 1018.14 1018.22 1018.22 1018.29 1018.49 1018.61 1018.58 1018.66 1018.78 1018.78 1018.97 1019.02
1014.78 1014.82 1014.93 1015.17 1015.38 1015.61 1015.90 1016.09 1016.14 1016.26 1016.38 1016.49 1016.49 1016.46 1016.58 1016.66 1016.82 1016.90 1016.97 1017.14 1017.22 1017.29 1017.38 1017.41 1017.49 1017.53 1017.58 1017.70 1017.82 1017.93 1018.02 1018.17 1018.17 1018.26 1018.46 1018.53 1018.58 1018.58 1018.61 1018.73 1018.85 1019.02
1014.58 1014.70 1014.85 1014.90 1015.14 1015.29 1015.53 1015.66 1015.78 1015.85 1015.97 1015.97 1016.05 1016.26 1016.26 1016.49 1016.61 1016.66 1016.70 1016.78 1016.90 1017.05 1017.14 1017.26 1017.34 1017.41 1017.38 1017.53 1017.73 1017.85 1017.90 1017.93 1018.05 1018.14 1018.29 1018.41 1018.53 1018.66 1018.53 1018.61 1018.78 1018.93
1014.29 1014.38 1014.53 1014.70 1014.90 1015.05 1015.26 1015.34 1015.46 1015.53 1015.58 1015.73 1015.93 1015.85 1015.93 1016.14 1016.29 1016.29 1016.38 1016.49 1016.66 1016.78 1016.85 1016.90 1017.02 1017.14 1017.17 1017.34 1017.58 1017.73 1017.82 1017.73 1017.90 1018.05 1018.17 1018.34 1018.46 1018.61 1018.58 1018.58 1018.66 1018.85
1014.05 1014.22 1014.34 1014.53 1014.73 1014.78 1014.93 1015.02 1015.09 1015.17 1015.22 1015.49 1015.58 1015.66 1015.66 1015.78 1015.93 1016.02 1016.14 1016.26 1016.41 1016.49 1016.58 1016.66 1016.73 1016.82 1016.85 1017.02 1017.22 1017.38 1017.53 1017.61 1017.66 1017.85 1018.02 1018.17 1018.38 1018.41 1018.46 1018.46 1018.66 1018.73
1014.02 1014.02 1014.17 1014.34 1014.58 1014.53 1014.61 1014.61 1014.70 1014.85 1014.93 1015.09 1015.17 1015.26 1015.49 1015.49 1015.53 1015.70 1015.85 1016.05 1016.22 1016.29 1016.34 1016.38 1016.46 1016.53 1016.61 1016.70 1016.82 1016.97 1017.17 1017.34 1017.46 1017.61 1017.73 1017.82 1017.97 1018.14 1018.22 1018.34 1018.46 1018.66
1013.97 1013.90 1014.05 1014.17 1014.26 1014.26 1014.34 1014.34 1014.38 1014.49 1014.58 1014.78 1014.90 1015.05 1015.09 1015.22 1015.38 1015.41 1015.61 1015.78 1015.93 1016.02 1016.05 1016.14 1016.14 1016.22 1016.38 1016.46 1016.49 1016.53 1016.73 1016.93 1017.14 1017.29 1017.46 1017.58 1017.66 1017.78 1017.90 1018.05 1018.22 1018.29
1013.73 1013.73 1013.73 1013.82 1013.85 1013.90 1013.97 1014.02 1014.05 1014.17 1014.26 1014.34 1014.46 1014.73 1014.82 1014.90 1015.05 1015.14 1015.22 1015.41 1015.46 1015.49 1015.58 1015.66 1015.73 1015.85 1016.02 1016.14 1016.17 1016.26 1016.46 1016.61 1016.78 1017.02 1017.22 1017.34 1017.46 1017.53 1017.66 1017.78 1017.90 1018.02
1013.26 1013.38 1013.29 1013.38 1013.49 1013.53 1013.58 1013.73 1013.82 1013.85 1013.93 1014.05 1014.02 1014.26 1014.49 1014.66 1014.70 1014.82 1014.82 1014.90 1015.02 1015.09 1015.22 1015.34 1015.46 1015.58 1015.73 1015.85 1015.93 1016.02 1016.17 1016.41 1016.61 1016.82 1016.97 1017.14 1017.26 1017.38 1017.49 1017.66 1017.73 1017.90
1012.82 1012.90 1013.02 1013.05 1013.09 1013.17 1013.29 1013.38 1013.46 1013.53 1013.61 1013.61 1013.73 1014.02 1014.14 1014.22 1014.34 1014.49 1014.49 1014.58 1014.66 1014.73 1014.82 1014.90 1015.14 1015.34 1015.46 1015.58 1015.70 1015.82 1015.97 1016.14 1016.29 1016.53 1016.78 1016.93 1017.09 1017.26 1017.38 1017.49 1017.61 1017.82
1012.34 1012.46 1012.58 1012.78 1012.90 1013.05 1013.17 1013.22 1013.26 1013.26 1013.26 1013.38 1013.49 1013.61 1013.61 1013.70 1013.78 1013.97 1014.26 1014.41 1014.38 1014.46 1014.53 1014.61 1014.85 1014.97 1015.05 1015.26 1015.49 1015.66 1015.70 1015.93 1016.14 1016.34 1016.58 1016.90 1017.09 1017.26 1017.34 1017.41 1017.53 1017.70
1011.82 1011.93 1012.05 1012.22 1012.46 1012.61 1012.70 1012.82 1012.93 1013.02 1013.09 1013.22 1013.26 1013.26 1013.34 1013.38 1013.53 1013.66 1013.82 1014.02 1014.22 1014.29 1014.34 1014.46 1014.53 1014.49 1014.53 1014.61 1014.78 1015.09 1015.41 1015.58 1015.82 1016.09 1016.34 1016.61 1016.93 1017.22 1017.34 1017.41 1017.58 1017.61
1011.85 1011.82 1011.78 1011.85 1011.82 1011.97 1012.09 1012.29 1012.46 1012.61 1012.82 1012.97 1013.05 1013.09 1013.17 1013.17 1013.26 1013.46 1013.53 1013.58 1013.78 1013.93 1014.17 1014.22 1014.17 1014.09 1014.05 1014.22 1014.38 1014.58 1014.85 1015.26 1015.61 1015.93 1016.17 1016.58 1017.14 1017.66 1017.97 1017.93 1017.58 1017.53
1011.61 1011.70 1011.85 1011.78 1011.73 1011.78 1011.78 1011.82 1012.02 1012.26 1012.49 1012.66 1012.82 1012.97 1012.97 1013.02 1013.22 1013.22 1013.22 1013.29 1013.41 1013.53 1013.73 1013.78 1013.78 1013.66 1013.73 1013.85 1013.97 1014.22 1014.41 1014.82 1015.22 1015.93 1016.66 1017.34 1017.90 1017.85 1017.97 1017.73 1017.58 1017.70
1011.58 1011.70 1011.70 1011.70 1011.70 1011.61 1011.61 1011.70 1011.82 1012.02 1012.17 1012.34 1012.46 1012.38 1012.58 1012.90 1012.93 1013.02 1013.09 1013.05 1013.14 1013.34 1013.41 1013.34 1013.38 1013.26 1013.46 1013.53 1013.66 1013.85 1014.14 1014.46 1015.09 1015.70 1015.90 1016.41 1016.70 1016.93 1017.14 1017.09 1017.34 1017.78
1011.41 1011.58 1011.70 1011.61 1011.61 1011.70 1011.73 1011.90 1011.93 1011.85 1011.73 1011.73 1011.85 1012.05 1012.29 1012.46 1012.53 1012.73 1012.73 1012.85 1012.85 1012.93 1013.02 1012.97 1013.02 1012.85 1013.05 1013.26 1013.38 1013.58 1013.85 1014.22 1014.78 1015.29 1015.61 1016.02 1016.41 1016.66 1016.93 1017.14 1017.41 1017.78
1011.22 1011.29 1011.38 1011.41 1011.49 1011.61 1011.73 1011.82 1011.82 1011.82 1011.85 1011.82 1011.78 1011.85 1012.02 1012.14 1012.22 1012.38 1012.38 1012.41 1012.46 1012.49 1012.70 1012.73 1012.53 1012.46 1012.73 1012.93 1013.17 1013.38 1013.66 1013.93 1014.46 1014.90 1015.29 1015.66 1016.02 1017.09 1017.49 1017.53 1018.02 1018.38
1011.14 1011.22 1011.29 1011.34 1011.41 1011.46 1011.61 1011.66 1011.70 1011.70 1011.73 1011.73 1011.90 1011.82 1011.66 1011.58 1011.70 1011.78 1011.93 1012.02 1012.02 1012.14 1012.38 1012.49 1012.17 1012.14 1012.38 1012.66 1012.97 1013.26 1013.58 1013.93 1014.34 1014.73 1015.41 1016.17 1016.58 1016.82 1016.97 1017.09 1017.49 1017.82
1010.90 1011.02 1011.09 1011.17 1011.22 1011.38 1011.46 1011.53 1011.58 1011.58 1011.49 1011.46 1011.78 1011.78 1011.90 1011.85 1011.70 1011.61 1011.49 1011.58 1011.73 1011.85 1012.09 1012.09 1011.93 1011.82 1012.05 1012.34 1012.73 1013.17 1013.66 1014.02 1014.29 1014.73 1015.46 1015.97 1016.29 1016.46 1016.78 1017.02 1017.22 1017.46
1010.82 1010.85 1010.97 1010.97 1011.05 1011.17 1011.22 1011.22 1011.22 1011.26 1011.38 1011.29 1011.49 1011.53 1011.53 1011.49 1011.53 1011.61 1011.53 1011.49 1011.53 1011.61 1011.53 1011.78 1011.66 1011.53 1011.85 1012.17 1012.58 1012.82 1012.82 1013.38 1013.82 1014.41 1015.17 1015.66 1016.17 1016.41 1016.73 1017.09 1017.49 1017.73
1010.66 1010.73 1010.82 1010.85 1010.93 1010.93 1010.97 1011.17 1011.26 1011.34 1011.26 1011.09 1010.97 1010.93 1011.05 1011.05 1011.17 1011.38 1011.41 1011.41 1011.38 1011.38 1011.29 1011.46 1011.49 1011.46 1011.78 1012.02 1012.26 1012.34 1012.41 1012.85 1013.46 1014.22 1015.09 1015.61 1016.02 1016.66 1016.90 1017.29 1017.66 1017.82
1010.53 1010.58 1010.66 1010.73 1010.85 1010.85 1010.90 1011.02 1011.14 1011.34 1011.26 1010.66 1010.61 1010.90 1010.93 1010.85 1010.85 1010.90 1011.09 1011.09 1011.05 1011.14 1011.17 1011.17 1011.38 1011.46 1011.78 1012.05 1012.05 1012.05 1011.97 1012.34 1013.02 1014.22 1015.22 1015.82 1016.05 1016.09 1016.78 1017.70 1017.97 1018.09
Wind_Speed
7 7 7 6 6 6 6 6 5 6 6 5 5 6 6 7 6 6 6 5 6 6 6 6 5 5 4 4 4 4 4 4 3 3 3 4 4 4 3 3 1 0
9 8 6 6 6 5 5 6 6 6 6 6 6 6 6 5 6 6 6 7 6 6 6 6 6 6 5 4 4 4 4 4 5 2 3 4 4 3 3 1 2 2
9 8 9 8 7 7 7 6 6 6 5 6 6 6 6 5 5 6 6 6 6 6 6 6 6 6 5 5 5 5 5 5 5 3 3 4 2 3 1 2 2 2
10 10 9 8 8 7 6 6 6 5 5 5 6 6 6 6 7 7 6 6 6 7 6 6 7 5 5 5 5 5 5 5 4 3 3 1 2 2 2 2 2 2
10 9 9 8 8 8 7 7 7 6 6 7 6 6 7 6 6 6 6 7 7 7 5 6 6 6 5 5 5 5 5 5 3 3 4 4 2 2 2 2 3 3
9 9 9 9 8 8 7 7 7 7 7 7 7 6 6 8 7 7 7 7 6 6 6 5 6 5 5 5 5 5 5 4 4 4 4 5 3 2 2 3 4 3
9 9 9 8 8 8 8 8 7 7 7 6 5 6 6 7 7 8 7 7 7 6 6 6 6 6 5 5 5 6 5 5 5 5 6 4 3 3 2 4 4 4
9 8 7 7 9 8 8 7 7 7 7 6 7 7 7 7 8 6 6 7 7 7 6 7 6 7 6 5 6 6 6 4 5 5 5 5 4 4 4 3 4 4
8 8 7 8 9 8 9 8 7 7 7 7 7 6 7 7 7 7 7 7 7 7 7 7 7 7 6 6 6 7 7 6 5 6 6 6 6 6 5 4 4 4
8 8 9 8 9 8 9 9 8 7 7 7 7 6 7 6 7 8 7 7 8 7 7 7 7 7 6 7 7 7 7 7 6 6 6 6 6 6 6 5 6 5
9 8 8 9 9 8 9 8 8 7 6 7 6 7 7 6 7 7 7 7 7 8 7 7 8 8 7 7 6 6 7 7 7 7 6 6 6 7 7 6 6 6
10 10 11 10 10 9 10 9 8 8 7 7 7 8 8 7 8 7 7 8 8 8 7 8 8 7 8 8 8 7 7 6 6 6 6 6 6 6 6 6 6 6
11 11 11 11 10 10 8 8 8 8 8 8 8 9 8 8 8 8 7 8 8 8 8 8 8 8 8 7 8 7 7 7 7 6 6 5 5 5 5 5 5 5
10 9 9 9 8 8 8 9 9 9 9 8 7 8 8 9 8 8 7 6 7 8 8 8 8 8 8 7 7 8 7 7 7 7 7 6 6 6 6 6 7 7
8 8 8 7 7 7 8 9 9 9 9 8 8 8 8 9 8 8 7 7 7 8 8 7 8 8 7 7 7 7 6 7 7 7 7 7 8 8 7 8 7 6
9 8 9 9 9 9 9 9 9 8 8 9 9 9 9 8 7 8 8 8 9 9 8 7 8 7 9 14 11 7 7 6 6 7 8 8 10 9 9 8 8 7
7 8 8 9 10 10 9 10 10 9 9 9 9 9 9 8 8 9 9 9 9 9 9 8 8 7 13 15 15 15 9 7 8 7 8 8 4 4 5 5 8 7
8 8 8 8 7 8 9 10 9 9 9 9 9 10 9 8 8 9 9 9 8 9 9 9 9 11 16 16 16 16 13 8 7 7 7 7 6 6 8 9 8 7
5 7 9 9 9 9 8 7 9 9 10 10 11 10 8 9 9 9 9 9 9 9 10 10 9 12 15 16 16 16 16 10 7 10 12 12 12 11 10 10 10 8
6 6 7 7 7 7 6 6 7 10 10 10 9 8 9 9 9 10 9 9 9 10 9 9 10 12 15 16 16 17 16 12 8 10 10 12 12 12 9 9 10 9
6 8 9 8 7 7 7 8 8 8 7 7 8 9 9 10 10 10 9 10 10 10 9 10 10 14 15 16 15 16 16 13 8 8 9 12 10 8 7 9 8 7
7 8 8 7 7 7 8 9 9 9 9 7 6 7 8 8 8 8 10 10 10 10 9 10 10 14 15 16 16 16 16 9 9 10 7 8 10 13 11 9 9 10
7 8 8 7 7 7 7 7 8 8 8 6 7 7 7 7 8 9 9 10 10 9 10 11 11 13 16 17 16 15 12 7 9 8 10 12 13 12 10 10 10 11
7 7 7 7 6 7 7 6 6 5 5 3 6 8 9 9 8 8 7 7 9 10 11 11 11 11 15 16 17 20 18 13 11 11 10 12 10 9 7 7 9 16
5 5 6 6 6 6 5 4 1 2 2 1 5 6 7 6 6 7 7 7 7 8 10 11 10 8 13 17 20 23 18 10 10 11 12 11 11 9 9 8 9 13
3 3 3 4 4 3 2 1 1 2 5 10 8 5 5 5 6 7 8 7 7 7 8 9 9 7 10 15 19 22 21 14 12 11 11 12 10 13 13 10 8 9
Wind_Direction
176 179 186 186 188 192 185 191 199 197 203 196 193 206 205 219 209 205 210 210 213 215 218 220 216 210 203 200 204 212 223 232 233 202 197 194 220 206 211 207 166 42
183 178 187 188 196 197 194 194 193 197 201 200 207 208 216 218 218 202 207 211 210 217 216 214 212 211 206 196 194 198 213 205 219 179 197 208 226 208 228 144 123 142
182 183 186 191 196 197 198 197 196 200 199 204 209 212 216 207 215 210 212 207 209 215 211 211 212 213 205 203 194 197 199 203 220 204 190 218 198 204 196 161 131 150
190 188 188 192 195 198 193 193 201 202 204 206 211 210 213 213 209 205 209 209 210 217 211 201 211 208 204 205 193 202 204 208 217 182 197 152 196 192 168 155 115 117
192 189 192 193 196 198 193 196 201 194 199 208 209 211 213 215 207 205 202 208 209 214 207 208 206 209 204 205 194 203 203 212 192 177 188 208 204 173 151 151 149 142
201 197 192 193 193 194 195 200 202 196 198 204 209 202 208 208 207 204 200 201 202 208 207 207 205 213 202 204 198 209 200 198 190 180 191 208 192 157 152 158 152 160
195 196 195 189 187 193 200 204 204 202 201 203 194 205 201 200 206 207 201 201 201 205 205 205 210 213 207 197 197 206 202 196 180 182 191 191 155 164 165 161 161 167
199 196 195 192 191 190 196 199 200 204 202 193 198 205 192 199 203 200 198 199 201 203 208 206 207 212 203 194 197 202 201 190 184 180 187 177 164 173 176 171 162 171
195 196 194 197 200 197 197 197 200 200 194 195 199 197 193 198 198 199 199 201 207 209 210 209 209 209 203 196 201 201 200 194 188 181 183 175 180 181 181 167 169 175
200 197 195 197 204 206 203 199 195 196 193 201 200 193 195 201 203 201 201 200 207 212 208 212 211 211 204 202 202 201 200 197 182 189 193 189 182 177 172 177 174 167
210 200 199 201 205 207 212 204 199 194 192 201 198 202 202 197 201 202 203 201 204 208 210 210 212 208 208 207 205 201 201 194 188 188 192 189 182 180 181 175 172 179
210 208 208 207 207 208 210 209 205 200 194 198 195 204 205 202 202 197 200 203 209 210 209 212 212 208 206 208 203 196 195 196 190 187 188 186 182 179 178 174 175 176
205 209 209 208 208 213 211 208 208 206 201 203 198 203 201 205 206 206 206 205 209 208 210 211 211 207 211 209 207 198 195 191 185 179 177 181 180 177 171 169 169 169
212 212 214 213 211 209 211 212 210 210 211 211 204 204 209 209 208 207 208 205 205 206 210 208 204 205 206 209 204 201 195 194 184 179 175 174 174 171 166 165 164 164
206 207 206 208 208 207 212 214 212 212 211 209 207 211 212 215 212 210 209 207 209 209 208 205 203 204 203 199 201 200 197 192 185 180 171 172 175 171 166 159 153 148
196 196 198 197 200 205 208 210 213 213 212 211 213 213 216 214 213 212 213 211 211 210 207 206 208 208 203 201 199 191 189 189 178 180 175 170 170 161 156 151 149 146
202 207 198 196 199 203 205 206 209 209 211 214 216 217 218 219 218 218 218 217 213 210 211 211 214 211 207 201 202 198 184 181 180 174 177 168 99 113 111 144 145 146
208 210 213 217 206 206 205 207 206 206 211 212 214 217 218 215 220 221 220 218 215 214 215 216 218 218 208 205 201 198 191 178 170 141 99 82 143 158 160 170 143 130
223 216 219 221 220 219 215 207 203 205 210 211 214 215 211 210 217 219 223 221 217 216 220 219 223 220 212 207 202 195 192 169 147 148 162 166 169 175 174 158 143 126
224 234 236 234 234 235 232 225 219 219 214 211 213 210 210 214 213 216 221 222 220 219 223 224 221 223 210 207 201 195 188 176 152 162 171 162 168 177 165 148 133 129
239 233 237 234 228 231 234 233 230 236 236 227 217 209 209 212 212 213 218 221 223 220 222 226 227 220 209 205 199 189 185 174 166 162 165 172 149 102 115 127 128 141
235 237 237 237 236 233 231 232 233 234 235 231 234 238 227 220 220 216 219 221 222 219 218 227 229 218 207 203 192 183 176 173 174 170 139 82 106 145 157 153 148 145
230 236 238 237 235 235 235 236 237 239 241 228 229 232 234 233 232 222 222 221 222 219 218 225 230 217 203 197 190 172 164 169 170 154 129 142 153 156 156 154 158 143
234 233 235 235 233 239 236 231 229 235 253 221 225 231 229 227 231 239 241 235 226 222 217 221 229 215 196 192 181 173 177 174 169 157 144 147 144 141 139 129 133 139
263 250 249 245 243 245 247 253 246 188 110 250 217 215 222 211 207 217 230 227 231 229 230 229 233 218 190 187 181 183 183 170 158 151 147 148 140 122 112 125 126 134
335 289 266 258 256 262 287 258 121 123 208 234 234 230 232 212 207 202 210 219 213 218 219 221 224 212 189 193 190 186 177 165 156 140 137 145 148 138 130 122 131 130